| time (UTC) | temp F | wind direction | speed MPH | gust MPH | rain 1hr in | rain 24hr in | rain mn in | humidity % | barometer mb |
| 20260905000028 | 68 | 352 | 0.0 | 1.0 | 0.00 | 0.32 | 0.30 | 79 | 1014.0 |
| 20260904234540 | 68 | 32 | 0.0 | 0.0 | 0.00 | 0.32 | 0.30 | 78 | 1014.1 |
| 20260904233010 | 68 | 24 | 0.0 | 1.0 | 0.00 | 0.32 | 0.30 | 78 | 1013.9 |
| 20260904231514 | 68 | 38 | 0.0 | 1.0 | 0.00 | 0.32 | 0.30 | 78 | 1014.0 |
| 20260904230027 | 69 | 17 | 0.0 | 1.0 | 0.00 | 0.32 | 0.30 | 75 | 1013.9 |
| 20260904224534 | 70 | 35 | 0.0 | 2.0 | 0.00 | 0.32 | 0.30 | 73 | 1014.0 |
| 20260904223029 | 70 | 5 | 1.0 | 4.0 | 0.00 | 0.32 | 0.30 | 73 | 1014.0 |
| 20260904221512 | 71 | 18 | 0.0 | 3.0 | 0.00 | 0.32 | 0.30 | 71 | 1013.9 |
| 20260904220004 | 72 | 15 | 0.0 | 3.0 | 0.00 | 0.32 | 0.30 | 67 | 1013.8 |
| 20260904214507 | 73 | 348 | 0.0 | 7.0 | 0.00 | 0.32 | 0.30 | 66 | 1013.8 |
| 20260904213006 | 74 | 360 | 1.0 | 4.0 | 0.00 | 0.32 | 0.30 | 64 | 1013.8 |
| 20260904211517 | 74 | 26 | 0.0 | 3.0 | 0.00 | 0.32 | 0.30 | 63 | 1013.9 |
| 20260904210022 | 74 | 28 | 1.0 | 12.0 | 0.00 | 0.32 | 0.30 | 61 | 1014.0 |
| 20260904204504 | 74 | 37 | 0.0 | 8.0 | 0.00 | 0.32 | 0.30 | 66 | 1014.0 |
| 20260904203010 | 75 | 9 | 1.0 | 8.0 | 0.00 | 0.32 | 0.30 | 62 | 1014.2 |
| 20260904201510 | 75 | 124 | 2.0 | 9.0 | 0.00 | 0.32 | 0.30 | 61 | 1014.3 |
| 20260904200016 | 74 | 47 | 1.0 | 9.0 | 0.00 | 0.32 | 0.30 | 62 | 1014.5 |
| 20260904194521 | 74 | 9 | 1.0 | 9.0 | 0.00 | 0.32 | 0.30 | 65 | 1014.5 |
| 20260904193008 | 75 | 292 | 1.0 | 10.0 | 0.00 | 0.32 | 0.30 | 62 | 1014.7 |
| 20260904191505 | 76 | 309 | 0.0 | 6.0 | 0.00 | 0.32 | 0.30 | 65 | 1014.7 |
| 20260904190014 | 74 | 313 | 1.0 | 8.0 | 0.00 | 0.32 | 0.30 | 65 | 1014.8 |
| 20260904184518 | 74 | 307 | 2.0 | 6.0 | 0.00 | 0.32 | 0.30 | 65 | 1014.7 |
| 20260904183024 | 75 | 268 | 0.0 | 3.0 | 0.00 | 0.32 | 0.30 | 66 | 1014.9 |
| 20260904181505 | 74 | 299 | 0.0 | 5.0 | 0.00 | 0.32 | 0.30 | 69 | 1015.1 |
| 20260904180009 | 74 | 44 | 1.0 | 8.0 | 0.00 | 0.32 | 0.30 | 68 | 1015.3 |
| 20260904174514 | 73 | 301 | 1.0 | 8.0 | 0.00 | 0.32 | 0.30 | 68 | 1015.5 |
| 20260904173031 | 75 | 343 | 2.0 | 5.0 | 0.00 | 0.32 | 0.30 | 65 | 1015.4 |
| 20260904171530 | 72 | 300 | 0.0 | 3.0 | 0.00 | 0.32 | 0.30 | 71 | 1015.5 |
| 20260904170007 | 73 | 290 | 0.0 | 6.0 | 0.00 | 0.32 | 0.30 | 68 | 1015.7 |
| 20260904164511 | 72 | 5 | 2.0 | 8.0 | 0.00 | 0.32 | 0.30 | 70 | 1015.5 |
| 20260904163015 | 72 | 333 | 1.0 | 4.0 | 0.00 | 0.32 | 0.30 | 71 | 1015.5 |
| 20260904161525 | 72 | 294 | 0.0 | 5.0 | 0.00 | 0.32 | 0.30 | 74 | 1015.8 |
| 20260904160043 | 72 | 288 | 0.0 | 6.0 | 0.00 | 0.32 | 0.30 | 74 | 1015.8 |
| 20260904154508 | 71 | 13 | 0.0 | 5.0 | 0.00 | 0.32 | 0.30 | 78 | 1015.7 |
| 20260904153016 | 71 | 343 | 0.0 | 5.0 | 0.00 | 0.32 | 0.30 | 79 | 1015.7 |
| 20260904151526 | 71 | 11 | 3.0 | 7.0 | 0.00 | 0.32 | 0.30 | 77 | 1015.8 |
| 20260904150040 | 70 | 15 | 2.0 | 7.0 | 0.00 | 0.32 | 0.30 | 81 | 1015.7 |
| 20260904144531 | 69 | 50 | 1.0 | 5.0 | 0.00 | 0.32 | 0.30 | 82 | 1015.8 |
| 20260904143009 | 69 | 308 | 0.0 | 8.0 | 0.00 | 0.32 | 0.30 | 83 | 1015.8 |
| 20260904141523 | 68 | 50 | 1.0 | 4.0 | 0.00 | 0.32 | 0.30 | 83 | 1015.9 |
| 20260904140028 | 68 | 317 | 0.0 | 7.0 | 0.00 | 0.32 | 0.30 | 84 | 1015.9 |
| 20260904134529 | 67 | 82 | 0.0 | 5.0 | 0.00 | 0.32 | 0.30 | 86 | 1015.7 |
| 20260904133030 | 66 | 5 | 0.0 | 8.0 | 0.00 | 0.32 | 0.30 | 89 | 1015.6 |
| 20260904080029 | 66 | 26 | 0.0 | 3.0 | 0.05 | 0.54 | 0.30 | 95 | 1013.9 |
| 20260904074535 | 66 | 16 | 0.0 | 0.0 | 0.06 | 0.56 | 0.29 | 95 | 1013.8 |
| 20260904073018 | 67 | 16 | 0.0 | 0.0 | 0.07 | 0.57 | 0.28 | 95 | 1013.7 |
| 20260904071523 | 67 | 16 | 0.0 | 0.0 | 0.06 | 0.57 | 0.26 | 95 | 1013.7 |
| 20260904070028 | 67 | 16 | 0.0 | 0.0 | 0.07 | 0.58 | 0.25 | 95 | 1013.6 |
| 20260904064530 | 67 | 16 | 0.0 | 0.0 | 0.07 | 0.60 | 0.23 | 95 | 1013.7 |
| 20260904063038 | 67 | 16 | 0.0 | 0.0 | 0.07 | 0.61 | 0.21 | 95 | 1013.7 |
| 20260904061526 | 68 | 16 | 0.0 | 0.0 | 0.08 | 0.63 | 0.20 | 95 | 1013.7 |
| 20260904060027 | 68 | 30 | 0.0 | 0.0 | 0.09 | 0.64 | 0.18 | 95 | 1013.9 |
| 20260904054530 | 68 | 9 | 0.0 | 1.0 | 0.09 | 0.65 | 0.16 | 94 | 1013.9 |
| 20260904053035 | 68 | 9 | 0.0 | 2.0 | 0.09 | 0.67 | 0.14 | 94 | 1014.1 |
| 20260904051553 | 69 | 352 | 0.0 | 0.0 | 0.10 | 0.68 | 0.12 | 94 | 1014.2 |
| 20260904050003 | 69 | 352 | 0.0 | 0.0 | 0.09 | 0.69 | 0.09 | 94 | 1014.2 |
| 20260904044504 | 69 | 61 | 0.0 | 2.0 | 0.08 | 0.71 | 0.07 | 94 | 1014.5 |
| 20260904043004 | 69 | 178 | 0.0 | 3.0 | 0.07 | 0.73 | 0.05 | 94 | 1014.5 |
| 20260904041503 | 70 | 13 | 0.0 | 3.0 | 0.04 | 0.74 | 0.02 | 94 | 1014.5 |
| 20260904040018 | 70 | 40 | 0.0 | 0.0 | 0.02 | 0.77 | 0.00 | 94 | 1014.6 |
| 20260904034507 | 70 | 346 | 0.0 | 0.0 | 0.01 | 0.80 | 0.76 | 94 | 1014.2 |
| 20260904033007 | 70 | 346 | 0.0 | 0.0 | 0.00 | 0.83 | 0.75 | 93 | 1014.2 |
| 20260904031508 | 70 | 346 | 0.0 | 0.0 | 0.00 | 0.87 | 0.75 | 94 | 1014.2 |
| 20260904030008 | 70 | 346 | 0.0 | 0.0 | 0.00 | 0.92 | 0.75 | 94 | 1014.2 |
| 20260904024503 | 70 | 346 | 0.0 | 0.0 | 0.00 | 0.97 | 0.75 | 94 | 1014.2 |
| 20260904023008 | 71 | 346 | 0.0 | 0.0 | 0.00 | 1.02 | 0.75 | 94 | 1014.2 |
| 20260904021508 | 71 | 346 | 0.0 | 0.0 | 0.00 | 1.07 | 0.75 | 93 | 1014.3 |
| 20260904020008 | 71 | 346 | 0.0 | 0.0 | 0.00 | 1.13 | 0.75 | 93 | 1014.9 |
| 20260904014509 | 71 | 346 | 0.0 | 0.0 | 0.00 | 1.14 | 0.75 | 93 | 1014.9 |
| 20260904013015 | 71 | 328 | 0.0 | 1.0 | 0.00 | 1.16 | 0.75 | 93 | 1015.0 |
| 20260904011508 | 71 | 274 | 0.0 | 0.0 | 0.00 | 1.16 | 0.75 | 93 | 1014.9 |
| 20260904010033 | 71 | 274 | 0.0 | 0.0 | 0.00 | 1.16 | 0.75 | 92 | 1015.0 |
| 20260904004513 | 71 | 274 | 0.0 | 0.0 | 0.00 | 1.17 | 0.75 | 91 | 1014.8 |
| 20260904003019 | 72 | 274 | 0.0 | 0.0 | 0.00 | 1.17 | 0.75 | 91 | 1014.6 |
| 20260904001513 | 72 | 274 | 0.0 | 0.0 | 0.00 | 1.17 | 0.75 | 90 | 1014.5 |